Weather in Novonikolayevka

Russia / Krasnoyarsk Krai     55°47′12″N   96°11′12″E
temp.,
°C
wind,
m/s
gust,
m/s
humid.,
%
clouds,
%
prec.,
mm/h
press.,
hPa
HPBL,
m
25 february, thu
thu2501:00−19ene3995100 0.0 1022231
04:00−18e379495 0.0 1018230
07:00−17e359798 0.5 1016195
10:00−13e2395100 0.3 1013162
13:00−10nnw2393100 0.7 1011280
16:00−12wnw41095100 1.9 1014489
19:00−13sw1197100 2.6 101921
22:00−13wnw2896100 0.3 1020466
26 february, fri
fri2601:00−17wnw21091100 0.4 1024526
04:00−19wsw279795 0.1 1026276
07:00−19sw4138197 0.1 1028489
10:00−17wsw51170100 0.0 10261499
13:00−15sw478893 0.1 10261154
16:00−18w61180100 0.4 10271322
19:00−21w41185100 0.4 10321143
22:00−23sw31290100 0.0 1034674
27 february, sat
sat2701:00−22wsw51288100 0.1 10341153
04:00−22wsw41292100 0.0 10341259
07:00−22wsw41288100 0.1 10361236
10:00−21w61289100 0.1 10361294
13:00−19w51088100 0.3 10361506
16:00−18w5990100 0.2 10351457
19:00−21w2699100 0.4 1036219
22:00−22wsw2398100 0.1 1037112
28 february, sun
sun2801:00−22sw2399100 0.4 1037100
04:00−23wsw2999100 0.3 1038536
07:00−24wsw21098100 0.3 1040485
10:00−21w4993100 0.1 1040811
13:00−19w5986100 0.1 10391120
16:00−18wnw4886100 0.1 10391041
19:00−21w1295100 0.1 104020
22:00−21ssw2295100 0.0 104027
1 march, mon
mon101:00−24ssw229888 0.0 104020
04:00−25s22994 0.0 103920
07:00−25sse229516 0.0 103720
10:00−19se238676 0.0 1033134
13:00−12ese358388 0.0 1029349
16:00−10ese3686100 0.0 1024437
19:00−11ese4895100 0.2 1022309
22:00−11ese2596100 0.6 1019220